Location: Caltech
(34.1382°N, 118.1253°W)
Time: 14:29:53
(UTC-08:00)

Lacrosse 5 - Visible Passes

Search period start: 05 March 2015 00:00
Search period end: 15 March 2015 01:00
Orbit: 713 x 725 km, 57.0° (Epoch: 04 March)

Date Brightness Start Highest point End Pass type
(mag) Time Alt. Az. Time Alt. Az. Time Alt. Az.
09 Mar 4.2 21:32:12 10° NNW 21:33:16 15° N 21:33:16 15° N visible
10 Mar 3.9 20:39:44 10° N 20:42:05 14° NNE 20:42:05 14° NNE visible
10 Mar 4.9 22:21:09 10° NW 22:21:17 11° NW 22:21:17 11° NW visible
11 Mar 3.7 21:28:02 10° NNW 21:30:09 23° NNW 21:30:09 23° NNW visible
12 Mar 3.3 20:35:12 10° NNW 20:39:04 23° NE 20:39:04 23° NE visible
12 Mar 4.6 22:17:32 10° NW 22:18:17 14° NW 22:18:17 14° NW visible
13 Mar 3.8 19:42:46 10° N 19:45:25 14° NNE 19:48:03 10° ENE visible
13 Mar 3.0 21:24:08 10° NW 21:27:16 38° NNW 21:27:16 38° NNW visible
14 Mar 2.4 20:31:03 10° NNW 20:35:47 40° NE 20:36:20 38° ENE visible
14 Mar 4.5 22:14:22 10° WNW 22:15:34 16° WNW 22:15:34 16° WNW visible
